FW3274 Weather Reports


Display with metric or nautical units.
time (UTC)temp
F
wind
direction
speed
MPH
gust
MPH
rain 1hr
in
rain 24hr
in
rain mn
in
humidity
%
barometer
mb
20260831171526 84 221 0.0 4.0 0.00 0.00 0.00 60 1006.6
20260831170025 85 221 0.0 4.0 0.00 0.00 0.00 57 1006.7
20260831164524 87 225 0.0 8.0 0.00 0.00 0.00 55 1006.7
20260831163026 88 220 0.0 5.0 0.00 0.00 0.00 53 1006.7
20260831161534 89 194 0.0 6.0 0.00 0.00 0.00 47 1007.0
20260831160020 89 221 0.0 5.0 0.00 0.00 0.00 45 1007.0
20260831154518 90 259 1.0 7.0 0.00 0.00 0.00 44 1007.1
20260831153018 90 193 0.0 3.0 0.00 0.00 0.00 45 1007.1
20260831151517 91 204 0.0 3.0 0.00 0.00 0.00 46 1007.1
20260831150015 91 215 0.0 5.0 0.00 0.00 0.00 44 1007.2
20260831144515 91 213 0.0 2.0 0.00 0.00 0.00 45 1007.3
20260831143016 91 216 0.0 4.0 0.00 0.00 0.00 44 1007.4
20260831141514 91 205 1.0 7.0 0.00 0.00 0.00 44 1007.3
20260831140012 91 207 0.0 4.0 0.00 0.00 0.00 43 1007.4
20260831134509 90 221 0.0 5.0 0.00 0.00 0.00 45 1007.5
20260831133007 91 216 0.0 2.0 0.00 0.00 0.00 43 1007.6
20260831131506 90 207 1.0 7.0 0.00 0.00 0.00 44 1007.8
20260831130005 90 265 0.0 6.0 0.00 0.00 0.00 44 1007.9
20260831124504 90 217 3.0 7.0 0.00 0.00 0.00 45 1008.0
20260831123001 90 232 1.0 5.0 0.00 0.00 0.00 46 1008.1
20260831121501 89 200 0.0 7.0 0.00 0.00 0.00 44 1008.2
20260831120100 89 252 3.0 8.0 0.00 0.00 0.00 44 1008.3
20260831114600 89 198 0.0 8.0 0.00 0.00 0.00 44 1008.4
20260831113059 89 219 1.0 6.0 0.00 0.00 0.00 44 1008.6
20260831111558 88 211 1.0 9.0 0.00 0.00 0.00 43 1008.6
20260831110057 89 96 0.0 4.0 0.00 0.00 0.00 44 1008.6
20260831104556 89 223 1.0 6.0 0.00 0.00 0.00 47 1008.7
20260831103055 87 257 0.0 8.0 0.00 0.00 0.00 47 1008.8
20260831101554 88 113 0.0 2.0 0.00 0.00 0.00 47 1008.7
20260831100106 87 167 0.0 2.0 0.00 0.00 0.00 49 1009.0
20260831094552 87 216 0.0 2.0 0.00 0.00 0.00 47 1009.0
20260831093057 87 134 0.0 1.0 0.00 0.00 0.00 49 1009.1
20260831091549 87 114 0.0 1.0 0.00 0.00 0.00 47 1009.2
20260831090056 85 219 0.0 0.0 0.00 0.00 0.00 50 1009.1
20260831084545 84 101 0.0 0.0 0.00 0.00 0.00 49 1009.2
20260831083101 85 91 0.0 0.0 0.00 0.00 0.00 47 1009.1
20260831081553 84 101 0.0 0.0 0.00 0.00 0.00 49 1009.0
20260831080107 83 172 0.0 0.0 0.00 0.00 0.00 49 1008.9
20260831074538 83 37 0.0 0.0 0.00 0.00 0.00 51 1008.9
20260831073035 82 327 0.0 0.0 0.00 0.00 0.00 51 1008.8
20260831071542 81 327 0.0 0.0 0.00 0.00 0.00 54 1008.8
20260831070031 81 327 0.0 0.0 0.00 0.00 0.00 52 1008.8
20260831064528 79 327 0.0 0.0 0.00 0.00 0.00 58 1008.7
20260831063024 77 5 0.0 0.0 0.00 0.00 0.00 60 1008.7
20260831061521 76 5 0.0 0.0 0.00 0.00 0.00 62 1008.7
20260831060017 75 9 0.0 0.0 0.00 0.00 0.00 63 1008.7
20260831054517 72 9 0.0 0.0 0.00 0.00 0.00 68 1008.6
20260831053017 71 28 0.0 0.0 0.00 0.00 0.00 70 1008.5
20260831051519 70 28 0.0 0.0 0.00 0.00 0.00 70 1008.4
20260831050015 70 30 0.0 0.0 0.00 0.00 0.00 70 1008.3
20260831044515 70 34 0.0 0.0 0.00 0.00 0.00 70 1008.2
20260831043019 70 34 0.0 0.0 0.00 0.00 0.00 71 1008.1
20260831041519 69 34 0.0 0.0 0.00 0.00 0.00 72 1008.1
20260831040016 69 34 0.0 0.0 0.00 0.00 0.00 71 1008.3
20260831034511 69 34 0.0 0.0 0.00 0.00 0.00 74 1008.3
20260831033018 68 34 0.0 0.0 0.00 0.00 0.00 75 1008.4
20260831031511 68 34 0.0 0.0 0.00 0.00 0.00 76 1008.6
20260831030007 69 34 0.0 0.0 0.00 0.00 0.00 77 1008.6
20260831024506 69 35 0.0 0.0 0.00 0.00 0.00 76 1008.5
20260831023011 70 34 0.0 0.0 0.00 0.00 0.00 76 1008.5
20260831021503 70 308 0.0 0.0 0.00 0.00 0.00 73 1008.6
20260831020003 70 308 0.0 0.0 0.00 0.00 0.00 72 1008.5
20260831014501 70 308 0.0 0.0 0.00 0.00 0.00 74 1008.5
20260831013102 70 308 0.0 0.0 0.00 0.00 0.00 73 1008.6
20260831011559 70 308 0.0 0.0 0.00 0.00 0.00 73 1008.7
20260831010105 71 308 0.0 0.0 0.00 0.00 0.00 72 1008.7
20260831004554 71 308 0.0 0.0 0.00 0.00 0.00 70 1008.7
20260831003052 72 308 0.0 0.0 0.00 0.00 0.00 66 1008.7
20260831001553 73 308 0.0 0.0 0.00 0.00 0.00 65 1008.7
20260831000051 74 308 0.0 0.0 0.00 0.00 0.00 63 1008.8
20260830234549 74 308 0.0 0.0 0.00 0.00 0.00 62 1008.8
20260830233045 74 308 0.0 0.0 0.00 0.00 0.00 61 1008.7
20260830231544 74 10 0.0 0.0 0.00 0.00 0.00 63 1008.8
20260830230043 74 13 0.0 0.0 0.00 0.00 0.00 63 1008.9
20260830224542 74 63 0.0 0.0 0.00 0.00 0.00 62 1008.9
20260830223040 74 63 0.0 0.0 0.00 0.00 0.00 62 1009.0
20260830221539 75 63 0.0 0.0 0.00 0.00 0.00 62 1008.9
20260830220039 75 63 0.0 0.0 0.00 0.00 0.00 62 1008.9
20260830214537 75 65 0.0 0.0 0.00 0.00 0.00 62 1008.9
20260830213050 75 67 0.0 0.0 0.00 0.00 0.00 63 1008.9
20260830211537 75 73 0.0 0.0 0.00 0.00 0.00 63 1008.8
20260830210036 75 74 0.0 0.0 0.00 0.00 0.00 64 1008.8
20260830204541 76 75 0.0 0.0 0.00 0.00 0.00 65 1008.7
20260830203035 76 76 0.0 0.0 0.00 0.00 0.00 66 1008.7
20260830201536 76 76 0.0 0.0 0.00 0.00 0.00 65 1008.7
20260830200034 77 76 0.0 0.0 0.00 0.00 0.00 64 1008.7
20260830194536 77 76 0.0 0.0 0.00 0.00 0.00 63 1008.6
20260830193035 78 76 0.0 0.0 0.00 0.00 0.00 63 1008.6
20260830191536 79 71 0.0 0.0 0.00 0.00 0.00 60 1008.5
20260830190033 80 72 0.0 0.0 0.00 0.00 0.00 59 1008.5
20260830184538 81 72 0.0 0.0 0.00 0.00 0.00 61 1008.5
20260830183032 81 72 0.0 0.0 0.00 0.00 0.00 59 1008.3
20260830181531 82 72 0.0 0.0 0.00 0.00 0.00 58 1008.1
20260830180032 83 72 0.0 0.0 0.00 0.00 0.00 56 1007.9
20260830174530 84 72 0.0 0.0 0.00 0.00 0.00 53 1007.9
20260830173029 85 72 0.0 0.0 0.00 0.00 0.00 48 1007.8